STARLINK-34649

Last updated on Sat Aug 16 2025 00:02:05 GMT+0000 (Coordinated Universal Time)

1 64798U 25150J 25227.53982985 -.00002703 00000+0 -58426-4 0 9996 2 64798 70.0023 315.6270 0002431 238.3125 121.7820 15.42682548 5995
UTC large
Height (km)
Speed (km/s)
/
Latitude / Longitude
Inclination (degrees)
Orbital Period (minutes)
Azimuth
Elevation
Range (km)
Doppler Factor

Next 0 passes for location: London (51.5072 / 0.1276)

Sorry there are no passes over London.